Location: Northam
(31.6525°S, 116.6655°E)
Time: 10:28:12
(UTC+08:00)

UNISAT 6 - Visible Passes

Search period start: 26 July 2021 00:00
Search period end: 05 August 2021 00:00
Orbit: 606 x 689 km, 97.7° (Epoch: 25 July)

Date Brightness Start Highest point End Pass type
(mag) Time Alt. Az. Time Alt. Az. Time Alt. Az.
26 Jul ? 18:14:13 10° NE 18:18:17 38° ESE 18:22:31 10° S visible
26 Jul ? 19:52:45 10° NW 19:55:06 14° W 19:57:30 10° WSW visible
27 Jul ? 06:12:01 10° ESE 06:14:22 14° E 06:16:43 10° ENE visible
27 Jul ? 18:39:28 10° NNE 18:43:52 81° ESE 18:48:25 10° S visible
28 Jul ? 06:36:13 10° SE 06:40:14 27° E 06:44:09 10° NNE visible
28 Jul ? 19:05:16 10° N 19:09:31 48° W 19:13:57 10° SSW visible
29 Jul ? 17:55:13 10° ENE 17:58:46 24° ESE 18:02:25 10° SSE visible
29 Jul ? 19:31:43 10° NNW 19:35:18 24° W 19:38:59 10° SW visible
30 Jul ? 18:20:01 10° NNE 18:24:15 47° ESE 18:28:40 10° S visible
30 Jul ? 19:59:29 10° WNW 20:01:10 12° W 20:02:52 10° WSW visible
31 Jul ? 06:17:31 10° SE 06:20:28 16° E 06:23:20 10° NE visible
31 Jul ? 18:45:24 10° N 18:49:50 85° WNW 18:54:28 10° SSW visible
01 Aug ? 19:11:21 10° NNW 19:15:32 40° W 19:19:53 10° SSW visible
02 Aug ? 18:00:52 10° NE 18:04:43 28° ESE 18:08:40 10° SSE visible
02 Aug ? 19:38:00 10° NW 19:41:20 20° W 19:44:45 10° SW visible
03 Aug ? 18:25:50 10° NNE 18:30:13 57° ESE 18:34:47 10° S visible
04 Aug ? 06:23:11 10° SE 06:26:32 19° E 06:29:48 10° NE visible
04 Aug ? 18:51:22 10° N 18:55:50 71° WNW 19:00:29 10° SSW visible
